{"data":{"norad_id":67047,"intl_designator":"2025-294T","name":"STARLINK-35779","alt_names":[],"object_type":"PAYLOAD","status":"ACTIVE","operator":null,"country":"US","launch_date":"2025-12-11","launch_site_code":"AFETR","launch_vehicle":null,"mission":null,"orbit_class":"UNKNOWN","rcs_meters":null,"size_class":null,"mass_kg":null,"dimensions":null,"purposes":["comms"],"wikipedia_slug":null,"has_3d_model":false,"image_url":null,"decayed_at":null,"tle_current":{"epoch":"2026-09-20T18:14:50.429760Z","epoch_age_seconds":59892,"freshness":"FRESH","line1":"1 67047U 25294T   26263.76030590  .00015408  00000+0  56814-3 0  9999","line2":"2 67047  43.0043  16.3423 0001663 274.3924  85.6737 15.27587693 44632","mean_motion":15.27587693,"eccentricity":0.0001663,"inclination_deg":43.0043,"raan_deg":16.3423,"arg_perigee_deg":274.3924,"mean_anomaly_deg":85.6737,"bstar":0.00056814,"rev_number":4463,"period_min":94.266273982086,"perigee_km":481.88504910982,"apogee_km":484.16707194375,"semimajor_km":6861.1630605268,"source":"CELESTRAK","updated_at":"2026-09-21T09:00:36.094611Z"}}}